Погода в Хурбе

Россия / Хабаровский край     50°24′14″N   136°53′14″E
темп.,
°C
ветер,
м/с
пор.,
м/с
влажн.,
%
обл.,
%
осадки,
мм/ч
давл.,
гПа
погр.,
м
28 ноября, вс
вс2801:00−11ю41196100 0.1 1027345
04:00−11ю51294100 0.2 1027418
07:00−12ю61394100 0.1 1027455
10:00−12ю61493100 0.2 1027468
13:00−11ю7149397 0.1 1024506
16:00−10ю6139046 0.1 1022463
19:00−11ю41092100 0.0 1021302
22:00−12ю1398100 0.0 102085
29 ноября, пн
пн2901:00−14ссз1199100 0.0 101914
04:00−12с2396100 0.2 1017124
07:00−11с2695100 0.9 1016250
10:00−10с3994100 1.9 1016382
13:00−8с51089100 0.7 1016591
16:00−8с49857 0.7 1017335
19:00−15ссз229858 0.0 102011
22:00−18з009933 0.0 10239
30 ноября, вт
вт3001:00−19ююв11100100 0.1 102314
04:00−16ю1398100 0.2 102357
07:00−13ю41194100 0.3 1022434
10:00−13ю51194100 0.3 1021465
13:00−12ю5891100 0.0 1020421
16:00−12ю3694100 0.0 1019312
19:00−16ссв1199100 0.0 10189
22:00−14с3596100 0.0 101697
1 декабря, ср
ср101:00−13с71491100 0.0 1014410
04:00−13с101788100 0.2 1010545
07:00−13с111992100 1.9 1006603
10:00−13с121991100 7.1 1003680
13:00−12с132090100 2.8 998829
16:00−11с142389100 5.4 993945
19:00−11с142489100 4.0 9891110
22:00−10ссз122287100 6.8 9871231
2 декабря, чт
чт201:00−9ссз132187100 2.8 9861227
04:00−9ссз122284100 4.1 9861276
07:00−9ссз122083100 0.6 9871158
10:00−9ссз81580100 0.9 9901125
13:00−7юз3576100 0.0 991809
16:00−11ю61292100 0.1 993435
19:00−14ююз81490100 0.1 996531
22:00−16ю61193100 0.1 998444